This is the latest recevied weather packets stored in our database for station/object KC0UFP. If no packets are shown the sender has not sent any weather packets the latest 10 day(s).
| Time | Temp. | Humidity | Pressure | Rain* | Wind** | Luminosity | Snow |
|---|---|---|---|---|---|---|---|
| 1777818499 | 15° C | 58% | 1021.3 hPa | 0 mm | - | 601 W/m² | - |
| 1777818196 | 15° C | 58% | 1021.4 hPa | 0 mm | - | 576 W/m² | - |
| 1777817892 | 14.44° C | 60% | 1021.6 hPa | 0 mm | - | 555 W/m² | - |
| 1777817590 | 14.44° C | 60% | 1021.6 hPa | 0 mm | - | 533 W/m² | - |
| 1777817286 | 13.89° C | 62% | 1021.4 hPa | 0 mm | - | 511 W/m² | - |
| 1777816983 | 13.89° C | 61% | 1021.6 hPa | 0 mm | - | 489 W/m² | - |
| 1777816679 | 13.33° C | 62% | 1021.5 hPa | 0 mm | - | 468 W/m² | - |
| 1777816376 | 13.33° C | 66% | 1021.5 hPa | 0 mm | - | 445 W/m² | - |
| 1777816074 | 13.33° C | 67% | 1021.5 hPa | 0 mm | - | 422 W/m² | - |
| 1777815772 | 12.78° C | 68% | 1021.7 hPa | 0 mm | - | 400 W/m² | - |
| 1777815469 | 12.78° C | 69% | 1021.6 hPa | 0 mm | - | 378 W/m² | - |
| 1777815166 | 12.78° C | 71% | 1021.5 hPa | 0 mm | - | 358 W/m² | - |
| 1777814863 | 12.78° C | 72% | 1021.6 hPa | 0 mm | - | 339 W/m² | - |
| 1777814558 | 12.22° C | 72% | 1021.6 hPa | 0 mm | - | 318 W/m² | - |
| 1777814256 | 12.22° C | 74% | 1021.6 hPa | 0 mm | - | 298 W/m² | - |
| 1777813953 | 12.22° C | 76% | 1021.6 hPa | 0 mm | - | 278 W/m² | - |
| 1777813651 | 12.22° C | 77% | 1021.6 hPa | 0 mm | - | 258 W/m² | - |
| 1777813347 | 11.67° C | 78% | 1021.4 hPa | 0 mm | - | 244 W/m² | - |
| 1777813045 | 11.67° C | 78% | 1021.3 hPa | 0 mm | - | 226 W/m² | - |
| 1777812743 | 11.11° C | 79% | 1021.5 hPa | 0 mm | - | 207 W/m² | - |
| 1777812439 | 10.56° C | 80% | 1021.3 hPa | 0 mm | - | 187 W/m² | - |
| 1777812137 | 10.56° C | 80% | 1021.2 hPa | 0 mm | - | 194 W/m² | - |
| 1777811835 | 10.56° C | 81% | 1021.4 hPa | 0 mm | - | 153 W/m² | - |
| 1777811533 | 10° C | 81% | 1021.4 hPa | 0 mm | - | 139 W/m² | - |
| 1777811229 | 10° C | 83% | 1021.4 hPa | 0 mm | - | 115 W/m² | - |
* Rain latest hour (hover to see other rain measurements)
** Current wind speed in m/s (hover to see current wind gust speed)